Wind_Speed
22 20 23 23 19 24 28 22 24 22 23 22 23 21 19 17 14 14 13 12 10 11 12 9 6 7 10 10 9 9 8 9 8
18 23 20 19 20 28 29 26 24 24 23 23 23 23 20 18 16 15 13 9 13 11 11 10 10 12 12 13 12 13 11 11 10
20 20 19 17 16 25 27 26 26 24 24 24 24 23 22 20 19 17 15 13 10 11 13 12 9 11 13 14 14 13 13 13 15
16 15 14 18 11 23 29 27 26 25 24 23 23 23 22 20 20 19 17 16 13 13 11 11 12 13 14 14 14 15 14 16 14
6 12 13 10 11 22 25 29 27 27 25 24 22 22 20 21 18 18 18 16 15 12 13 13 13 12 12 11 12 13 14 15 16
1 9 9 8 5 9 19 27 27 28 26 24 23 22 22 20 19 18 16 15 14 14 12 11 11 10 11 12 10 11 12 12 13
5 6 6 2 5 8 4 17 23 22 25 24 22 22 22 21 20 19 18 16 15 15 13 12 12 11 11 10 10 10 11 12 12
10 9 14 9 8 7 8 5 13 11 16 23 22 21 21 21 20 18 17 14 15 15 15 14 13 13 13 12 11 12 12 10 11
9 13 15 16 17 16 17 15 17 18 13 10 14 16 16 17 18 15 15 15 15 15 15 15 13 12 10 10 11 10 10 10 9
5 11 5 9 14 16 20 19 19 18 16 14 11 13 16 13 12 14 15 17 18 18 17 15 13 11 12 9 9 8 7 7 5
10 13 14 11 6 10 17 17 19 17 15 14 11 12 13 11 9 9 10 14 16 16 14 15 13 13 13 10 11 9 9 7 5
9 10 9 10 10 7 15 17 19 19 13 9 9 10 9 7 4 5 6 8 15 15 12 10 11 13 13 12 9 7 5 4 5
6 20 11 11 11 7 7 10 18 17 15 12 12 9 6 3 0 4 5 10 13 14 16 16 18 18 14 10 6 5 3 3 3
10 19 12 9 11 9 8 2 9 17 14 14 13 12 8 2 3 0 7 10 12 7 3 8 10 10 12 10 9 8 5 3 2
11 16 12 10 10 10 13 9 11 16 14 13 16 12 10 11 10 10 9 5 8 11 10 8 9 11 9 8 7 7 6 4 4
13 16 15 14 13 18 20 15 15 18 12 12 17 18 14 11 13 12 12 12 14 14 12 10 12 10 11 7 6 7 9 9 6
13 16 13 15 17 18 17 22 22 19 14 12 15 18 17 15 17 16 11 11 12 11 8 8 7 9 11 5 4 4 3 0 2
14 16 12 14 16 16 15 15 17 19 21 22 24 21 19 16 15 14 14 13 11 10 10 8 8 6 6 6 3 3 5 4 2
15 14 14 14 16 16 15 15 15 15 13 12 15 16 14 13 14 12 13 16 15 13 12 11 10 7 4 3 3 3 3 4 5
15 15 15 15 15 16 15 16 16 13 12 13 15 14 11 8 11 10 11 10 9 10 8 7 5 3 2 1 1 2 3 4 6
Wind_Direction
198 225 196 220 200 184 174 193 180 191 183 194 195 193 197 202 205 206 214 199 225 208 223 233 194 214 225 230 235 234 235 242 243
193 208 220 217 197 196 171 179 187 192 186 193 198 201 199 202 205 218 216 236 205 220 224 235 236 233 228 229 229 232 234 240 245
178 214 215 200 206 195 182 184 189 195 192 194 197 203 202 207 212 211 224 224 205 233 241 226 229 230 230 231 232 228 229 243 231
184 195 242 238 177 202 181 183 192 193 194 192 197 201 200 206 207 208 212 225 216 227 232 221 229 229 225 223 224 231 236 241 271
340 182 229 268 226 223 173 176 195 187 195 193 196 197 204 199 208 216 212 217 227 216 228 224 226 224 226 225 224 228 226 231 238
355 191 219 251 289 310 161 178 195 186 192 193 192 195 198 206 207 213 225 224 225 226 222 225 229 227 223 227 232 236 236 234 241
140 168 190 16 311 324 152 184 191 194 190 192 192 193 199 204 212 217 221 225 226 227 227 227 228 230 238 244 245 244 243 242 240
155 196 158 187 227 256 323 207 210 206 201 191 195 196 200 204 207 214 222 225 228 227 229 229 236 240 244 240 241 248 240 239 247
251 194 197 189 199 194 200 216 216 218 206 211 201 201 209 213 206 210 216 221 227 229 229 231 235 233 240 256 253 244 229 243 259
218 255 204 211 180 179 188 191 201 199 179 195 213 207 211 223 222 214 215 224 224 221 225 228 229 238 239 242 249 247 241 248 256
22 22 27 20 10 186 183 185 190 180 179 164 186 203 209 209 213 217 223 226 238 232 222 219 227 234 231 228 219 245 253 264 277
40 48 22 21 35 96 133 156 173 165 158 169 187 182 151 160 192 238 240 234 233 217 220 222 224 220 219 223 232 242 250 231 243
76 81 32 20 14 52 108 169 165 158 173 177 196 195 195 179 166 268 260 253 241 242 237 240 234 208 187 185 175 169 177 180 258
74 77 57 43 45 34 31 79 191 182 188 196 203 186 175 147 95 122 13 309 221 173 188 181 158 142 151 147 148 152 139 111 28
79 80 83 68 59 45 49 61 106 91 95 121 147 139 129 126 115 100 95 115 77 89 94 116 123 123 103 102 86 96 89 93 44
88 83 78 74 65 52 56 74 91 89 88 113 123 126 121 124 133 132 132 122 114 131 126 117 122 120 104 88 81 66 64 44 43
98 94 88 99 82 67 62 69 77 87 99 107 111 111 110 110 105 99 94 110 127 129 123 125 134 136 119 124 134 119 95 60 305
106 95 96 91 88 87 81 82 79 80 87 97 99 101 99 97 99 106 109 105 105 118 119 130 127 118 116 135 187 214 227 240 274
100 107 104 100 100 96 93 84 82 81 88 94 98 95 94 104 105 98 102 107 104 103 107 109 111 118 134 203 249 260 239 262 288
116 115 113 107 102 100 97 94 90 86 88 87 92 94 92 106 118 124 144 144 126 115 114 108 108 113 135 209 264 300 298 303 308
Height
748 752 754 758 761 766 777 787 794 803 810 818 823 826 830 833 836 837 839 840 840 843 844 845 847 850 852 853 854 854 855 855 855
746 751 749 756 756 760 772 782 791 800 806 813 819 823 827 830 834 835 836 837 840 842 843 844 846 847 849 850 851 852 853 853 852
739 746 744 748 750 756 764 776 787 796 803 809 814 818 823 827 829 832 835 836 838 839 839 842 843 844 846 847 848 849 850 849 848
729 742 744 740 755 751 759 772 782 792 798 805 810 814 817 822 825 827 831 833 834 837 838 840 841 842 843 843 845 846 847 847 846
737 738 747 748 743 752 755 765 777 787 793 799 805 810 814 818 821 824 826 829 831 834 836 837 839 839 839 840 840 842 844 845 843
748 745 751 753 752 758 751 762 774 780 788 794 801 806 810 814 818 821 824 826 829 830 832 834 834 836 837 837 838 839 839 840 841
753 755 757 759 760 757 752 759 771 776 784 790 796 802 806 810 814 817 820 823 826 827 829 831 832 833 835 835 836 836 837 838 838
751 758 761 766 766 764 762 761 775 779 781 786 792 797 802 806 809 813 817 820 823 824 827 828 829 831 832 833 834 833 834 835 836
747 749 752 757 762 768 772 776 779 780 781 785 788 794 798 803 806 810 814 818 820 823 824 825 827 828 830 832 832 830 832 833 835
756 741 742 746 757 765 770 774 778 782 784 787 792 795 798 801 804 807 809 813 816 818 820 822 824 826 827 828 829 830 830 832 832
761 757 758 762 761 763 766 771 777 781 784 786 791 795 796 800 802 805 806 809 812 815 817 818 820 822 824 826 826 829 830 830 831
773 772 773 771 769 768 769 770 773 777 785 787 789 793 795 799 802 804 805 803 809 812 814 816 816 818 820 822 824 826 827 828 830
775 765 778 776 774 773 774 776 775 775 780 785 787 792 793 796 799 803 804 805 808 810 812 812 812 814 815 819 821 824 825 826 827
778 767 777 781 781 781 776 776 778 779 780 785 789 791 791 793 795 802 799 803 804 806 808 809 811 812 813 817 820 823 824 824 825
778 773 782 784 783 783 778 778 778 778 782 784 785 788 792 796 798 800 802 808 807 809 811 811 813 815 817 818 820 821 823 825 827
780 781 784 787 787 783 783 784 782 782 785 787 788 790 793 797 796 801 806 809 810 814 814 818 817 819 817 820 821 823 824 826 828
782 784 787 789 789 790 792 788 787 786 790 791 791 794 797 800 802 806 810 810 812 817 818 820 823 821 817 822 825 825 826 828 830
783 784 791 791 791 793 795 796 796 797 797 798 797 801 803 805 808 809 812 813 815 819 818 820 821 823 821 822 825 826 828 829 829
783 788 792 794 796 798 800 800 802 802 805 804 804 806 809 810 812 814 817 818 820 821 820 820 820 822 824 825 826 827 827 829 830
789 792 795 798 799 801 803 805 806 808 810 809 808 810 813 814 814 817 819 820 821 822 824 823 824 824 825 826 825 826 828 828 829